Zurück zum Katalog

DIAMANT R/B

AktivLEO
NORAD 1805·ROCKET BODY·🇫🇷 France

Gestartet Nov 26, 1965 von Hammaguir Space Track Range

Loading…

Nächste Überflüge (nächste 24 Stunden)

TLE

AktuellSource: Space-Track

Epoche: Sep 14, 2026, 07:54 UTC

1 01805U 65096B   26257.32951006  .00001075  00000-0  22555-3 0  9993
2 01805  34.2450 259.4952 0581431  33.8975 329.7481 13.88298437 17114

Verfolge DIAMANT R/B in Echtzeit mit AllMySat

Download on the App Store